Terminal Aerodrome Forecast
Issued by NWS

Home | Current Version | Previous Version | Text Only | Print | Product List | Glossary On
Versions: 1 2 3 4 5 6 7 8 9 10 11 12 13 14 15 16 17 18 19 20 21 22 23 24 25 26 27 28 29 30
000
FTUS45 KSLC 291500 AAB
TAFLGU
TAF AMD
KLGU 291500Z 2915/3012 VRB04KT P6SM VCSH SCT060 BKN100
      TEMPO 2915/2918 -RA BKN070
     FM292000 33009KT P6SM VCTS SCT050CB BKN080
     FM300300 10006KT P6SM VCSH SCT060 BKN090
     FM300900 12010KT P6SM BKN100=

USA.gov is the U.S. government's official web portal to all federal, state and local government web resources and services.